Challis, ID

11:42 PM MST on November 24, 2017 (GMT -0700)
Challis

Weather History for KLLJ - November, 2012

Change the Weather History Date:

Saturday, November 24, 2012

  Actual Average Record
Temperature  
Mean Temperature 35 °F 25 °F  
Max Temperature 44 °F 35 °F 59 °F (1949)
Min Temperature 26 °F 16 °F -17 °F (1985)
Degree Days  
Heating Degree Days 30 40  
Month to date heating degree days 699 799  
Since 1 July heating degree days 1525 1793  
Cooling Degree Days 0 0  
Month to date cooling degree days 0 0  
Year to date cooling degree days 329 248  
Moisture  
Dew Point 29 °F    
Average Humidity 81    
Maximum Humidity 92    
Minimum Humidity 70    
Precipitation  
Precipitation 0.08 in 0.02 in 0.20 in (1981)
Month to date precipitation 0.70 0.43  
Year to date precipitation 4.97 9.23  
Sea Level Pressure  
Sea Level Pressure 30.15 in    
Wind  
Wind Speed 1 mph (NW)    
Max Wind Speed 15 mph    
Max Gust Speed 20 mph    
Visibility 10 miles    
Events Rain    
T = Trace of Precipitation, MM = Missing Value Source: NWS Daily Summary

Daily Weather History Graph

Daily Weather History Graph

Search for Another Location

Airport or City:

Trip Planner

Search our weather history database for the weather conditions in past years. The results will help you decide how hot, cold, wet, or windy it might be!

Date:

Astronomy

Nov. 24, 2012 Rise Set
Actual Time 7:45 AM MST 5:01 PM MST
Civil Twilight 7:13 AM MST 5:33 PM MST
Nautical Twilight 6:37 AM MST 6:09 PM MST
Astronomical Twilight 6:02 AM MST 6:44 PM MST
Moon 2:54 PM MST (11/24) 3:59 AM MST (11/24)
Length of Visible Light 10h 20m
Length of Day
9h 15m
Waxing Gibbous, 87% of the Moon is Illuminated
Nov 24
Waxing Gibbous
Nov 28
Full
Dec 6
Last Quarter
Dec 13
New
Dec 19
First Quarter

Hourly Weather History & Observations

Time (MST) Temp. Windchill Dew Point Humidity Pressure Visibility Wind Dir Wind Speed Gust Speed Precip Events Conditions
12:55 AM 28.0 °F 24.2 °F 21.9 °F 78% 30.28 in 10.0 mi North 3.5 mph - N/A   Overcast
1:55 AM 27.0 °F 23.0 °F 21.9 °F 81% 30.25 in 10.0 mi WNW 3.5 mph - N/A   Overcast
2:55 AM 28.0 °F - 21.9 °F 78% 30.24 in 10.0 mi Calm Calm - N/A   Scattered Clouds
3:55 AM 27.0 °F - 21.9 °F 81% 30.22 in 10.0 mi Calm Calm - N/A   Clear
4:55 AM 27.0 °F - 21.9 °F 81% 30.21 in 10.0 mi Calm Calm - N/A   Scattered Clouds
5:55 AM 26.1 °F - 21.9 °F 84% 30.22 in 10.0 mi Calm Calm - N/A   Mostly Cloudy
6:55 AM 28.0 °F - 23.0 °F 81% 30.20 in 10.0 mi Calm Calm - N/A   Overcast
7:55 AM 30.0 °F - 25.0 °F 82% 30.20 in 10.0 mi Calm Calm - N/A   Overcast
8:55 AM 30.0 °F - 25.0 °F 82% 30.20 in 10.0 mi Calm Calm - 0.00 in   Overcast
9:55 AM 30.9 °F 27.5 °F 26.1 °F 82% 30.22 in 10.0 mi NNW 3.5 mph - 0.01 in   Overcast
10:55 AM 34.0 °F - 27.0 °F 75% 30.21 in 10.0 mi Calm Calm - N/A   Overcast
11:55 AM 37.0 °F - 28.9 °F 73% 30.19 in 10.0 mi Calm Calm - 0.00 in   Overcast
12:55 PM 37.9 °F - 28.0 °F 68% 30.16 in 10.0 mi Calm Calm - 0.00 in Rain Light Rain
1:55 PM 39.0 °F - 30.0 °F 70% 30.16 in 10.0 mi Calm Calm - 0.00 in Rain Light Rain
2:55 PM 37.9 °F 35.5 °F 32.0 °F 79% 30.14 in 10.0 mi South 3.5 mph - 0.00 in Rain Light Rain
3:55 PM 39.0 °F 34.8 °F 33.1 °F 79% 30.14 in 10.0 mi WNW 5.8 mph - 0.00 in   Overcast
4:55 PM 41.0 °F - 33.1 °F 73% 30.12 in 10.0 mi Calm Calm - 0.00 in   Overcast
5:55 PM 37.9 °F - 33.1 °F 83% 30.12 in 10.0 mi Calm Calm - 0.00 in   Overcast
6:55 PM 37.9 °F - 33.1 °F 83% 30.10 in 10.0 mi Calm Calm - 0.00 in   Overcast
7:55 PM 37.0 °F - 33.1 °F 86% 30.09 in 10.0 mi Calm Calm - 0.00 in Rain Light Rain
8:55 PM 37.0 °F - 33.1 °F 86% 30.07 in 10.0 mi Calm Calm - 0.01 in Rain Light Rain
9:55 PM 36.0 °F - 34.0 °F 93% 30.05 in 10.0 mi Calm Calm - 0.02 in Rain Light Rain
10:40 PM 35.6 °F - 33.8 °F 93% 30.01 in 7.0 mi Calm Calm - 0.01 in Rain Light Rain
10:55 PM 36.0 °F - 34.0 °F 93% 30.03 in 8.0 mi Calm Calm - 0.02 in Rain Light Rain
11:15 PM 35.6 °F - 33.8 °F 93% 30.00 in 7.0 mi Calm Calm - 0.01 in Rain Light Rain
11:55 PM 35.1 °F - 33.1 °F 92% 30.00 in 8.0 mi Calm Calm - 0.02 in Rain Light Rain